Regional Weather Roundup
Issued by NWS San Diego, CA

Home | Current Version | Previous Version | Text Only | Print | Product List | Glossary On
Versions: 1 2 3 4 5 6 7 8 9 10 11 12 13 14 15 16 17 18 19 20 21 22 23 24 25 26 27 28 29 30 31 32 33 34 35 36 37 38 39 40 41 42 43 44 45 46 47 48 49 50
000
ASUS46 KSGX 270711
RWRSGX

SAN DIEGO HOURLY WEATHER ROUNDUP
NATIONAL WEATHER SERVICE SAN DIEGO CA
1200 AM PDT WED JUL 27 2016

NOTE: "FAIR" INDICATES FEW OR NO CLOUDS BELOW 12,000 FEET WITH NO
SIGNIFICANT WEATHER AND/OR OBSTRUCTIONS TO VISIBILITY.

CAZ042-043-060-061-PZZ750-775-270800-

GREATER SAN DIEGO AREA

CITY           SKY/WX    TMP DP  RH WIND       PRES   REMARKS
LINDBERGH FLD  PTCLDY    70  65  84 NW6       29.90S
POINT LOMA       N/A     69  65  87 W9          N/A
NATIONAL CITY    N/A     73  67  81 CALM      29.90F
IMPERIAL BEACH CLEAR     70  64  81 CALM      29.89F
BROWN FIELD    CLEAR     70  65  84 CALM      29.90F
MIRAMAR MCAS   PTCLDY    72  62  71 CALM      29.90S
MONTGOMERY FLD CLEAR     73  62  68 NW3       29.90S

$$

NORTH SAN DIEGO COUNTY

CITY           SKY/WX    TMP DP  RH WIND       PRES   REMARKS
CAMP PENDLETON CLEAR     70  66  87 CALM      29.88F
OCEANSIDE AP   CLEAR     69  63  81 CALM      29.88S
OCEANSIDE HBR    N/A     73  69  87 CALM      29.91S
VISTA            N/A     71  65  83 CALM      29.86S
CARLSBAD       MOCLDY    72  69  90 CALM      29.88F
DEL MAR          N/A     70  68  93 CALM      29.91S
LA JOLLA SCRIP   N/A     70  69  95 SW2       29.88S
ESCONDIDO        N/A     73  63  69 CALM      29.90F
SAN MARCOS       N/A     71  61  71 CALM      29.91F
POWAY            N/A     71  62  75 CALM      29.89F

$$

EAST SAN DIEGO COUNTY

CITY           SKY/WX    TMP DP  RH WIND       PRES   REMARKS
RAMONA         CLEAR     71  54  54 CALM      29.93S
SANTEE LAKES     N/A     72  64  75 CALM      29.87S
LA MESA          N/A     71  65  83 CALM      29.82S
JAMUL            N/A     70  65  83 CALM      29.87F
CAMPO            N/A     70  51  51 NE5       29.96F

$$

ORANGE COUNTY AND THE LOS ANGELES BASIN

CITY           SKY/WX    TMP DP  RH WIND       PRES   REMARKS
JOHN WAYNE AP  CLEAR     71  66  84 S5        29.88F
LAGUNA BEACH     N/A    N/A N/A N/A CALM      29.83F
LAKE FOREST FR   N/A     73  38  27 CALM      29.75F
HUNTINGTON BCH   N/A     70  67  90 W1        29.90F
LOS ALAMITOS   FAIR      71  66  84 SE1       29.87F
FULLERTON      CLEAR     76  65  68 S3        29.87F
LONG BEACH     CLEAR     72  65  78 CALM      29.88S
L.A. AP        PTCLDY    70  63  78 SW5       29.89S
L.A. DOWNTOWN  CLEAR     71  64  78 CALM      29.88S

$$

THE INLAND EMPIRE

CITY           SKY/WX    TMP DP  RH WIND       PRES   REMARKS
CORONA         CLEAR     75  51  43 W5        29.90S
CHINO          CLEAR     76  52  43 S3        29.91S
ONTARIO        CLEAR     79  51  37 S5        29.91S
SAN BERNARDINO FAIR      82  47  28 W5        29.91S
RIVERSIDE AP   CLEAR     79  51  37 SW5       29.90F
MARCH ARB      CLEAR     78  50  38 W3        29.93S
FRENCH VALLEY  FAIR      77  55  47 CALM      29.93F

$$

SAN BERNARDINO AND RIVERSIDE COUNTY MOUNTAINS

CITY           SKY/WX    TMP DP  RH WIND       PRES   REMARKS
BIG BEAR AP    MOCLDY    61  45  55 CALM      30.31S
PINE COVE        N/A     72  49  44 W3        29.82S

$$

SOUTHERN DESERT INCLUDING THE COACHELLA VALLEY

CITY           SKY/WX    TMP DP  RH WIND       PRES   REMARKS
PALM SPRINGS   PTCLDY    98  52  21 CALM      29.77R HX  95
THOUSAND PALMS   N/A     97  52  21 W9        29.72S
PALM DESERT      N/A     95  59  29 CALM        N/A
THERMAL        CLEAR     98  49  18 NW9       29.69S HX  95
BLYTHE         CLEAR    102  60  25 SW12      29.73S HX 103
IMPERIAL AP    CLEAR     94  61  33 W7        29.70F
EL CENTRO NAS  CLEAR     95  54  25 W7        29.73S
YUMA AZ        CLEAR     91  66  43 S7        29.74S
MEXICALI       CLEAR     90  66  45 SE7       29.74R

$$

UPPER DESERT

CITY           SKY/WX    TMP DP  RH WIND       PRES   REMARKS
VICTORVILLE AP CLEAR     82  43  24 S13       29.98S
HESPERIA         N/A     80  47  31 W1        29.90S
PALMDALE       CLEAR     86  45  23 SW15      29.96S
LANCASTER      CLEAR     85  41  21 SW8       29.94S
EDWARDS AFB    CLEAR     83  42  23 SW10      29.90S
DAGGETT        CLEAR     93  45  19 W10       29.88S
29 PALMS N     PTCLDY    95  48  20 W12       29.94R

$$

REGIONAL REPORTS

CITY           SKY/WX    TMP DP  RH WIND       PRES   REMARKS
SANTA BARBARA  CLEAR     62  61  96 SE3       29.86F
SANDBERG       CLEAR     83  33  16 NW10      30.14S
LAS VEGAS NV   PTCLDY    98  40  13 S5        29.78S
PHOENIX AZ     PTCLDY    96  64  34 S13       29.77R HX  98
TIJUANA        CLEAR     70  63  78 NW3       29.92F
ENSENADA NW      N/A     71  32  24 CALM      29.85F

$$

OFFSHORE ISLANDS

CITY           SKY/WX    TMP DP  RH WIND       PRES   REMARKS
CATALINA ARPT  CLEAR     78  15   9 CALM      29.95S
SAN NICOLAS IS CLEAR     66  63  90 NE5       29.89S

$$

MARINE AND OFFSHORE BUOY REPORTS

STATION/POSITION SKY/WX   TEMP    WIND        PRES    SWELL
                          AIR SEA DIR/SP/G            HT/PER/DIR
                          (F)     (DEG/KT/KT) (MB)    (FT/S/D)
TANNER BANKS               60 65  290/ 10/ 14 1012.4F   3/200/13
S CLEMENTE BASIN           67 70  270/  8/ 10 1011.9F   3/170/13
SAN NICOLAS IS.               61                N/A     3/280/11
SO. S. ROSA ISLA           60 67  290/ 12/ 16 1011.9S   5/320/ 9
W. S. BARBARA CH           58 62  300/ 17/ 21 1011.3F   3/310/ 9
M. S. BARBARA CH                  240/  8/ 10 1012.0S   3/260/ 9
S. MONICA BASIN            69 73  300/  2/  4 1011.5S
S PEDRO CHANNEL               71                N/A     2/170/13
OCEANSIDE OFFSHR              76                N/A     2/190/13
TORREY PINES OTR              76                N/A     2/200/13
LA JOLLA 1                 71 72  310/  2/  3 1012.1F
SAN DIEGO BAY                 79              1012.4F
POINT LOMA SOUTH              72                N/A     2/190/13

$$




USA.gov is the U.S. government's official web portal to all federal, state and local government web resources and services.